UITMSAT-1 (43589 NORAD) Tracking and Keplerian Element Data

This shows tracking and keplerian element data for the satellite.

Feedback or suggestion? Click here.




ElementValue
Catalog43589
NameUITMSAT-1
Epoch Orbit13067
Epoch Day325.00934518
Epoch Year2020
RAAN191.6935
Inclination51.6128
Eccentricity0.000732
Argument of Perigee255.994
Mean Anonmoly104.0273
Mean Motion16.40872661
Decay Rate0.09147399
L11 43589U 98067PD 20325.00934518 .09147399 12394-4 58853-3 0 9998
L22 43589 51.6128 191.6935 0007320 255.9940 104.0273 16.40872661130679



Live tracking and technical data element details for UITMSAT-1 (NORAD 43589). UITMSAT-1 can be tracked NOW for your location showing map with azimuth and elevation plus other details from your city location.







IsCatalogInMostPopularTable: catalog: 43589, numindb: 554
Update: records affected: 1



GetName: 43589 UITMSAT-1

Hit Count: updated at: Thu, 23 Jan 2025 15:59:15 GMT